FW4092 Weather Reports


time (UTC)temp
F
wind
direction
speed
knots
gust
knots
rain 1hr
in
rain 24hr
in
rain mn
in
humidity
%
barometer
mb
20260509211703 79 58 2.6 6.1 0.00 0.00 0.00 19 1015.3
20260509211156 79 0 2.6 7.0 0.00 0.00 0.00 18 1015.3
20260509210650 78 310 2.6 7.0 0.00 0.00 0.00 18 1015.3
20260509210147 78 36 1.7 4.3 0.00 0.00 0.00 19 1015.5
20260509205640 78 251 2.6 7.8 0.00 0.00 0.00 19 1015.5
20260509205131 78 67 3.5 7.8 0.00 0.00 0.00 21 1015.5
20260509204626 77 36 2.6 7.8 0.00 0.00 0.00 20 1015.6
20260509204120 77 64 2.6 7.8 0.00 0.00 0.00 20 1015.7
20260509203614 77 73 2.6 5.2 0.00 0.00 0.00 21 1015.8
20260509203110 77 338 2.6 6.1 0.00 0.00 0.00 21 1015.8
20260509202602 78 54 1.7 6.1 0.00 0.00 0.00 22 1015.8
20260509202056 78 34 1.7 8.7 0.00 0.00 0.00 23 1015.8
20260509201550 76 123 1.7 8.7 0.00 0.00 0.00 25 1015.9
20260509201045 76 74 2.6 5.2 0.00 0.00 0.00 24 1015.9
20260509200538 76 69 2.6 7.8 0.00 0.00 0.00 24 1016.0
20260509200033 75 61 1.7 7.8 0.00 0.00 0.00 24 1016.0
20260509195542 75 69 1.7 7.8 0.00 0.00 0.00 27 1016.1
20260509195020 74 64 2.6 7.8 0.00 0.00 0.00 26 1016.3
20260509194513 74 69 2.6 7.8 0.00 0.00 0.00 25 1016.3
20260509194011 74 67 1.7 7.0 0.00 0.00 0.00 26 1016.3
20260509193501 74 86 2.6 7.8 0.00 0.00 0.00 26 1016.4
20260509192956 74 31 1.7 7.8 0.00 0.00 0.00 26 1016.5
20260509192453 74 69 1.7 7.8 0.00 0.00 0.00 27 1016.7
20260509191953 74 90 2.6 7.8 0.00 0.00 0.00 27 1016.7
20260509191453 73 333 1.7 4.3 0.00 0.00 0.00 29 1016.7
20260509191042 73 49 1.7 7.8 0.00 0.00 0.00 31 1016.9
20260509191029 73 85 1.7 5.2 0.00 0.00 0.00 28 1016.7
20260509185950 72 87 2.6 7.8 0.00 0.00 0.00 29 1017.0
20260509185449 72 117 1.7 6.1 0.00 0.00 0.00 31 1017.1
20260509184956 71 75 1.7 4.3 0.00 0.00 0.00 33 1017.1
20260509184456 71 63 2.6 7.8 0.00 0.00 0.00 32 1017.3
20260509184019 71 63 1.7 6.1 0.00 0.00 0.00 35 1017.3
20260509184015 71 65 2.6 7.8 0.00 0.00 0.00 32 1017.2
20260509182949 70 85 1.7 5.2 0.00 0.00 0.00 35 1017.3
20260509182449 70 115 1.7 5.2 0.00 0.00 0.00 36 1017.5
20260509181953 70 135 0.9 5.2 0.00 0.00 0.00 32 1017.6
20260509181455 69 101 1.7 5.2 0.00 0.00 0.00 36 1017.6
20260509181022 68 122 1.7 6.1 0.00 0.00 0.00 37 1017.6
20260509181017 68 74 1.7 5.2 0.00 0.00 0.00 37 1017.6
20260509175948 67 155 2.6 6.1 0.00 0.00 0.00 37 1017.6
20260509175446 67 175 1.7 6.1 0.00 0.00 0.00 38 1017.6
20260509174946 67 126 2.6 7.8 0.00 0.00 0.00 39 1017.7
20260509174444 66 107 2.6 7.8 0.00 0.00 0.00 39 1017.7
20260509174220 67 198 1.7 7.8 0.00 0.00 0.00 39 1017.7
20260509173440 66 128 2.6 7.8 0.00 0.00 0.00 41 1017.7
20260509172939 66 127 2.6 7.8 0.00 0.00 0.00 41 1017.8
20260509172440 65 213 1.7 7.8 0.00 0.00 0.00 42 1017.8
20260509171941 65 104 2.6 7.0 0.00 0.00 0.00 44 1017.9
20260509171440 65 117 2.6 7.8 0.00 0.00 0.00 44 1017.9
20260509170938 64 109 2.6 7.8 0.00 0.00 0.00 44 1017.9
20260509170659 64 126 1.7 6.1 0.00 0.00 0.00 45 1018.0
20260509170439 64 126 1.7 6.1 0.00 0.00 0.00 45 1018.0
20260509165935 64 115 1.7 7.0 0.00 0.00 0.00 45 1018.0
20260509165431 63 119 1.7 7.0 0.00 0.00 0.00 45 1018.0
20260509165239 62 178 1.7 5.2 0.00 0.00 0.00 48 1018.2
20260509165234 63 96 1.7 6.1 0.00 0.00 0.00 47 1018.1
20260509163931 62 168 1.7 7.0 0.00 0.00 0.00 49 1018.2
20260509163439 61 159 0.9 7.0 0.00 0.00 0.00 49 1018.2
20260509162930 60 169 0.9 1.7 0.00 0.00 0.00 52 1018.2
20260509162430 59 175 0.9 6.1 0.00 0.00 0.00 52 1018.3
20260509162427 59 197 1.7 6.1 0.00 0.00 0.00 52 1018.3
20260509161426 58 111 1.7 4.3 0.00 0.00 0.00 54 1018.5
20260509160918 58 182 1.7 4.3 0.00 0.00 0.00 53 1018.5
20260509160411 58 186 0.9 4.3 0.00 0.00 0.00 53 1018.5
20260509155908 57 148 0.9 3.5 0.00 0.00 0.00 55 1018.4
20260509155359 57 163 0.9 3.5 0.00 0.00 0.00 55 1018.4
20260509155129 56 134 0.9 3.5 0.00 0.00 0.00 57 1018.4
20260509154350 55 151 1.7 4.3 0.00 0.00 0.00 58 1018.5
20260509153842 55 184 1.7 4.3 0.00 0.00 0.00 59 1018.7
20260509153614 54 135 1.7 6.1 0.00 0.00 0.00 59 1018.7
20260509153100 53 184 1.7 6.1 0.00 0.00 0.00 59 1018.8
20260509152323 53 151 1.7 4.3 0.00 0.00 0.00 61 1018.8
20260509151818 52 183 1.7 6.1 0.00 0.00 0.00 62 1019.0
20260509151311 52 151 1.7 6.1 0.00 0.00 0.00 63 1018.9
20260509150808 51 143 1.7 6.1 0.00 0.00 0.00 63 1018.9
20260509150259 51 149 1.7 6.1 0.00 0.00 0.00 64 1018.8
20260509145753 50 179 1.7 6.1 0.00 0.00 0.00 65 1018.8
20260509145247 50 155 0.9 6.1 0.00 0.00 0.00 66 1018.9
20260509144742 49 134 1.7 5.2 0.00 0.00 0.00 69 1018.7
20260509144237 48 138 2.6 7.0 0.00 0.00 0.00 69 1018.8
20260509143729 47 146 2.6 6.1 0.00 0.00 0.00 70 1018.8
20260509143717 47 124 2.6 7.0 0.00 0.00 0.00 71 1018.8
20260509143458 47 124 2.6 7.0 0.00 0.00 0.00 71 1018.8
20260509142717 47 134 2.6 7.0 0.00 0.00 0.00 72 1018.8
20260509142444 46 142 1.7 5.2 0.00 0.00 0.00 72 1018.8
20260509141935 46 137 1.7 5.2 0.00 0.00 0.00 73 1018.8
20260509141159 45 136 1.7 7.0 0.00 0.00 0.00 74 1018.7
20260509140653 44 150 1.7 7.0 0.00 0.00 0.00 75 1018.7
20260509140148 44 125 1.7 6.1 0.00 0.00 0.00 76 1018.7
20260509135641 43 128 1.7 6.1 0.00 0.00 0.00 77 1018.5
20260509135135 42 130 1.7 5.2 0.00 0.00 0.00 78 1018.5
20260509134629 42 130 1.7 4.3 0.00 0.00 0.00 78 1018.4
20260509134122 42 144 1.7 4.3 0.00 0.00 0.00 78 1018.5
20260509133617 41 128 1.7 6.1 0.00 0.00 0.00 79 1018.3
20260509133442 40 134 1.7 6.1 0.00 0.00 0.00 79 1018.4
20260509133438 40 144 2.6 6.1 0.00 0.00 0.00 80 1018.3
20260509133433 41 130 1.7 6.1 0.00 0.00 0.00 79 1018.3
20260509131617 40 144 2.6 7.0 0.00 0.00 0.00 80 1018.2
20260509131115 39 161 2.6 7.0 0.00 0.00 0.00 80 1018.1
20260509130615 39 136 1.7 7.0 0.00 0.00 0.00 80 1018.1
20260509130117 39 158 1.7 5.2 0.00 0.00 0.00 79 1018.0
20260509125613 39 143 1.7 5.2 0.00 0.00 0.00 79 1018.0
20260509125113 39 141 1.7 4.3 0.00 0.00 0.00 79 1017.9
20260509124611 39 171 1.7 6.1 0.00 0.00 0.00 79 1017.9
20260509124112 39 147 1.7 6.1 0.00 0.00 0.00 80 1017.9
20260509123611 39 148 2.6 6.1 0.00 0.00 0.00 81 1017.9
20260509123111 39 144 3.5 6.1 0.00 0.00 0.00 80 1017.9
20260509122611 39 141 3.5 6.1 0.00 0.00 0.00 79 1018.0
20260509122111 39 132 3.5 7.0 0.00 0.00 0.00 79 1018.0
20260509121611 40 136 2.6 7.0 0.00 0.00 0.00 79 1018.1
20260509121112 40 135 0.9 4.3 0.00 0.00 0.00 80 1018.3
20260509120610 40 126 0.9 3.5 0.00 0.00 0.00 81 1018.3
20260509120112 40 128 1.7 3.5 0.00 0.00 0.00 82 1018.3
20260509115611 40 131 0.9 2.6 0.00 0.00 0.00 82 1018.3
20260509115111 40 149 0.0 1.7 0.00 0.00 0.00 83 1018.3
20260509114612 39 150 0.0 0.9 0.00 0.00 0.00 83 1018.3
20260509114111 39 150 0.0 0.0 0.00 0.00 0.00 82 1018.2
20260509113610 40 150 0.0 0.9 0.00 0.00 0.00 81 1018.3
20260509113350 40 150 0.0 0.9 0.00 0.00 0.00 80 1018.3
20260509112611 41 150 0.0 0.0 0.00 0.00 0.00 80 1018.3
20260509112120 41 150 0.0 0.0 0.00 0.00 0.00 78 1018.2
20260509111616 42 150 0.0 0.0 0.00 0.00 0.00 78 1018.3
20260509111113 42 150 0.0 0.0 0.00 0.00 0.00 78 1018.3
20260509110609 42 150 0.0 1.7 0.00 0.00 0.00 78 1018.3
20260509110331 42 150 0.0 1.7 0.00 0.00 0.00 78 1018.2
20260509105835 42 153 0.0 1.7 0.00 0.00 0.00 79 1018.2
20260509105100 42 163 0.0 0.9 0.00 0.00 0.00 79 1018.2
20260509104558 42 150 0.0 2.6 0.00 0.00 0.00 79 1018.2
20260509104059 42 150 0.9 2.6 0.00 0.00 0.00 79 1018.4
20260509103556 42 151 0.9 1.7 0.00 0.00 0.00 78 1018.3
20260509103050 43 151 0.9 1.7 0.00 0.00 0.00 77 1018.4
20260509102621 44 152 0.0 0.9 0.00 0.00 0.00 76 1018.5
20260509102602 43 151 0.9 1.7 0.00 0.00 0.00 76 1018.4
20260509101532 44 152 0.0 0.0 0.00 0.00 0.00 75 1018.5
20260509101027 44 152 0.0 0.9 0.00 0.00 0.00 76 1018.5
20260509100521 44 152 0.0 0.9 0.00 0.00 0.00 76 1018.7
20260509100014 44 152 0.0 0.0 0.00 0.00 0.00 76 1018.7
20260509095508 44 152 0.0 0.9 0.00 0.00 0.00 76 1018.7
20260509095224 44 152 0.0 0.9 0.00 0.00 0.00 76 1018.5
20260509095007 44 152 0.0 0.9 0.00 0.00 0.00 76 1018.5
20260509094459 44 152 0.0 0.9 0.00 0.00 0.00 76 1018.5
20260509093950 44 152 0.0 0.9 0.00 0.00 0.00 75 1018.7
20260509093445 45 150 0.9 1.7 0.00 0.00 0.00 75 1018.8
20260509092940 45 150 0.9 2.6 0.00 0.00 0.00 75 1018.8
20260509092432 45 150 0.9 3.5 0.00 0.00 0.00 74 1018.7
20260509091927 46 155 0.9 3.5 0.00 0.00 0.00 73 1018.7
20260509091716 46 181 0.9 2.6 0.00 0.00 0.00 72 1018.8
20260509090914 47 232 0.9 2.6 0.00 0.00 0.00 72 1018.9
20260509090412 47 264 0.9 2.6 0.00 0.00 0.00 72 1018.9
20260509085902 47 298 0.0 2.6 0.00 0.00 0.00 72 1018.9
20260509085357 47 355 0.0 1.7 0.00 0.00 0.00 72 1019.0
20260509085119 47 355 0.0 1.7 0.00 0.00 0.00 72 1018.9
20260509084859 47 355 0.0 1.7 0.00 0.00 0.00 71 1018.9
20260509084123 47 22 0.0 0.9 0.00 0.00 0.00 71 1018.9
20260509083331 47 22 0.0 0.9 0.00 0.00 0.00 71 1019.0
20260509082826 47 23 0.0 0.0 0.00 0.00 0.00 71 1019.1
20260509082320 47 23 0.0 0.0 0.00 0.00 0.00 70 1019.0
20260509081814 47 23 0.0 0.0 0.00 0.00 0.00 70 1019.1
20260509081309 48 23 0.0 0.0 0.00 0.00 0.00 68 1019.0
20260509080810 48 23 0.0 0.0 0.00 0.00 0.00 67 1019.1
20260509080752 49 23 0.0 0.0 0.00 0.00 0.00 68 1019.0
20260509075750 49 23 0.0 0.0 0.00 0.00 0.00 68 1018.9
20260509075250 49 23 0.0 0.0 0.00 0.00 0.00 67 1018.9
20260509075033 49 23 0.0 0.0 0.00 0.00 0.00 66 1018.9
20260509074250 49 23 0.0 0.0 0.00 0.00 0.00 66 1018.9
20260509074030 50 23 0.0 0.0 0.00 0.00 0.00 64 1018.9
20260509073254 50 23 0.0 0.0 0.00 0.00 0.00 64 1018.9
20260509072747 51 23 0.0 0.0 0.00 0.00 0.00 64 1018.9
20260509072246 51 23 0.0 0.0 0.00 0.00 0.00 63 1018.9
20260509071744 51 23 0.0 0.0 0.00 0.00 0.00 62 1018.7
20260509071245 52 23 0.0 0.0 0.00 0.00 0.00 61 1018.7
20260509070744 52 23 0.0 0.9 0.00 0.00 0.00 60 1018.5
20260509070244 53 23 0.0 0.9 0.00 0.00 0.00 59 1018.5
20260509065744 53 23 0.0 2.6 0.00 0.00 0.00 58 1018.5
20260509065244 54 24 0.0 3.5 0.00 0.00 0.00 58 1018.4
20260509064745 55 34 0.9 3.5 0.00 0.00 0.00 57 1018.4
20260509064245 55 19 0.9 5.2 0.00 0.00 0.00 57 1018.4
20260509063740 55 11 0.9 5.2 0.00 0.00 0.00 58 1018.3
20260509063258 55 345 0.9 3.5 0.00 0.00 0.00 59 1018.4
20260509063254 55 337 0.0 3.5 0.00 0.00 0.00 59 1018.3
20260509062240 55 22 0.9 3.5 0.00 0.00 0.00 59 1018.4
20260509061740 55 311 0.9 4.3 0.00 0.00 0.00 60 1018.4
20260509061243 55 355 0.0 4.3 0.00 0.00 0.00 60 1018.4
20260509060740 55 355 0.0 3.5 0.00 0.00 0.00 61 1018.4
20260509060535 56 355 0.9 3.5 0.00 0.00 0.00 59 1018.3
20260509055740 56 350 0.9 4.3 0.00 0.00 0.00 58 1018.1
20260509055235 56 351 1.7 4.3 0.00 0.00 0.00 58 1018.2
20260509054734 57 333 2.6 7.0 0.00 0.00 0.00 57 1018.3
20260509054235 57 327 3.5 9.6 0.00 0.00 0.00 57 1018.2
20260509053733 57 340 4.3 9.6 0.00 0.00 0.00 57 1018.1
20260509053234 57 296 4.3 8.7 0.00 0.00 0.00 57 1017.9
20260509052734 56 298 4.3 9.6 0.00 0.00 0.00 57 1017.9
20260509052243 56 313 2.6 9.6 0.00 0.00 0.00 57 1018.0
20260509051733 57 319 2.6 7.8 0.00 0.00 0.00 57 1018.0
20260509051233 57 290 2.6 7.8 0.00 0.00 0.00 57 1017.9
20260509050734 57 295 1.7 7.0 0.00 0.00 0.00 56 1018.0
20260509050233 57 318 0.9 7.0 0.00 0.00 0.00 56 1018.0
20260509045735 57 309 0.9 4.3 0.00 0.00 0.00 55 1018.0
20260509045232 58 343 0.9 5.2 0.00 0.00 0.00 55 1017.9
20260509044734 58 350 0.9 5.2 0.00 0.00 0.00 55 1018.0
20260509044224 58 355 1.7 6.1 0.00 0.00 0.00 54 1018.0
20260509043717 58 315 1.7 6.1 0.00 0.00 0.00 55 1018.0
20260509043211 57 325 2.6 4.3 0.00 0.00 0.00 54 1017.9
20260509042932 57 335 1.7 4.3 0.00 0.00 0.00 54 1017.8
20260509042202 58 334 1.7 5.2 0.00 0.00 0.00 53 1017.8
20260509041653 58 300 1.7 5.2 0.00 0.00 0.00 52 1017.6
20260509041147 58 319 1.7 5.2 0.00 0.00 0.00 52 1017.6
20260509040642 59 332 1.7 5.2 0.00 0.00 0.00 51 1017.6
20260509040137 59 333 2.6 6.1 0.00 0.00 0.00 51 1017.6
20260509035919 60 331 3.5 7.8 0.00 0.00 0.00 50 1017.5
20260509035914 59 332 2.6 7.0 0.00 0.00 0.00 50 1017.5
20260509034620 60 305 3.5 7.8 0.00 0.00 0.00 50 1017.3
20260509034111 60 338 3.5 7.8 0.00 0.00 0.00 49 1017.2
20260509033833 60 300 3.5 8.7 0.00 0.00 0.00 49 1017.1
20260509033131 60 327 4.3 10.4 0.00 0.00 0.00 49 1017.1
20260509032853 61 294 5.2 11.3 0.00 0.00 0.00 48 1017.1
20260509031546 62 308 5.2 13.9 0.00 0.00 0.00 47 1017.1
20260509031046 62 263 6.1 13.9 0.00 0.00 0.00 47 1017.1
20260509030834 62 300 7.0 15.6 0.00 0.00 0.00 46 1017.0
20260509030050 63 273 5.2 15.6 0.00 0.00 0.00 46 1016.9
20260509025546 63 302 5.2 11.3 0.00 0.00 0.00 45 1016.9
20260509025324 63 345 6.1 13.0 0.00 0.00 0.00 44 1016.8
20260509024545 64 331 6.1 13.0 0.00 0.00 0.00 44 1016.7
20260509024045 64 315 7.0 13.0 0.00 0.00 0.00 43 1016.8
20260509023838 65 304 7.0 13.0 0.00 0.00 0.00 42 1016.7
20260509023330 65 290 6.1 12.2 0.00 0.00 0.00 41 1016.7
20260509022545 66 275 6.1 12.2 0.00 0.00 0.00 40 1016.7
20260509022045 66 288 6.1 13.9 0.00 0.00 0.00 38 1016.7
20260509021545 67 333 6.1 13.9 0.00 0.00 0.00 38 1016.6
20260509021058 67 284 6.1 13.0 0.00 0.00 0.00 37 1016.6
20260509020552 67 317 6.1 15.6 0.00 0.00 0.00 37 1016.5
20260509020329 67 324 7.8 15.6 0.00 0.00 0.00 36 1016.1
20260509015600 68 302 7.0 13.9 0.00 0.00 0.00 36 1016.0
20260509015049 68 313 7.0 15.6 0.00 0.00 0.00 36 1016.0
20260509014544 68 5 7.8 15.6 0.00 0.00 0.00 35 1016.0
20260509014039 69 329 7.8 14.8 0.00 0.00 0.00 35 1015.8
20260509013539 69 329 7.8 19.1 0.00 0.00 0.00 34 1015.7
20260509013038 69 327 8.7 19.1 0.00 0.00 0.00 35 1015.6
20260509012538 70 330 8.7 14.8 0.00 0.00 0.00 34 1015.6
20260509012039 70 295 7.8 14.8 0.00 0.00 0.00 33 1015.8
20260509011536 71 271 5.2 14.8 0.00 0.00 0.00 31 1015.8
20260509011033 71 285 4.3 10.4 0.00 0.00 0.00 31 1015.9
20260509010555 71 348 4.3 9.6 0.00 0.00 0.00 31 1016.1
20260509010550 71 295 4.3 9.6 0.00 0.00 0.00 31 1016.0
20260509005533 71 232 5.2 11.3 0.00 0.00 0.00 30 1016.0
20260509005035 71 265 5.2 11.3 0.00 0.00 0.00 30 1015.9
20260509004533 72 28 4.3 10.4 0.00 0.00 0.00 29 1016.0
20260509004029 72 319 5.2 11.3 0.00 0.00 0.00 29 1015.7
20260509003530 71 235 7.0 13.9 0.00 0.00 0.00 29 1015.6
20260509003029 71 271 8.7 15.6 0.00 0.00 0.00 29 1015.5
20260509002529 71 283 9.6 15.6 0.00 0.00 0.00 28 1015.4
20260509002033 72 265 9.6 17.4 0.00 0.00 0.00 28 1015.4
20260509001529 72 269 9.6 17.4 0.00 0.00 0.00 27 1015.3
20260509001029 73 252 8.7 16.5 0.00 0.00 0.00 27 1015.2
20260509000529 73 288 9.6 17.4 0.00 0.00 0.00 27 1015.2
20260509000029 72 293 8.7 17.4 0.00 0.00 0.00 27 1015.3
20260508235530 73 268 7.8 15.6 0.00 0.00 0.00 27 1015.3
20260508235030 72 265 7.8 15.6 0.00 0.00 0.00 28 1015.4
20260508234823 72 315 7.8 15.6 0.00 0.00 0.00 28 1015.6
20260508234320 73 290 7.0 14.8 0.00 0.00 0.00 27 1015.8
20260508233528 73 313 5.2 12.2 0.00 0.00 0.00 27 1015.9
20260508233314 73 280 5.2 12.2 0.00 0.00 0.00 26 1015.9
20260508232538 73 291 6.1 13.9 0.00 0.00 0.00 27 1016.0
20260508232032 73 326 6.1 13.9 0.00 0.00 0.00 27 1016.0
20260508231528 73 331 7.0 13.9 0.00 0.00 0.00 27 1016.0
20260508231255 73 267 7.8 13.9 0.00 0.00 0.00 27 1015.8
20260508230526 73 338 7.0 13.0 0.00 0.00 0.00 26 1015.9
20260508230028 73 281 7.8 15.6 0.00 0.00 0.00 27 1015.7
20260508225525 73 298 8.7 15.6 0.00 0.00 0.00 27 1015.6
20260508225025 73 305 8.7 14.8 0.00 0.00 0.00 27 1015.7
20260508224532 72 302 8.7 19.1 0.00 0.00 0.00 27 1015.6
20260508223510 72 300 8.7 17.4 0.00 0.00 0.00 27 1015.9
20260508223001 72 233 8.7 15.6 0.00 0.00 0.00 28 1015.8
20260508222454 72 205 8.7 15.6 0.00 0.00 0.00 27 1015.9
20260508221948 73 322 7.8 15.6 0.00 0.00 0.00 27 1015.8
20260508221442 73 304 7.8 15.6 0.00 0.00 0.00 28 1015.8
20260508220936 73 331 7.8 13.9 0.00 0.00 0.00 27 1015.9
20260508220429 73 292 7.0 15.6 0.00 0.00 0.00 27 1015.8
20260508215931 73 338 7.8 15.6 0.00 0.00 0.00 28 1015.8
20260508215925 74 323 7.0 15.6 0.00 0.00 0.00 27 1015.8
20260508214916 73 292 7.8 15.6 0.00 0.00 0.00 27 1015.6
20260508214912 73 274 8.7 15.6 0.00 0.00 0.00 27 1015.8
20260508213929 73 298 7.8 15.6 0.00 0.00 0.00 28 1015.7
20260508213914 73 292 7.8 15.6 0.00 0.00 0.00 28 1015.6
20260508212848 72 312 9.6 16.5 0.00 0.00 0.00 27 1015.6
20260508212343 72 351 9.6 19.1 0.00 0.00 0.00 26 1015.7